Date String (YYYY-MM-DD hh:mm:ss) UTC,Instrument flags,Ambient pressure (hPa),Sample flow (lpm),Bypass flow (lpm),Sample temperature (°C),Ambient temperature (°C),ASC tube jacket temperature (°C),LED temperature (°C),Box temperature (°C),Sample RH (%),Span deviation,Mass concentration (μg/m³),Mass concentration (μg/m³),Mass concentration (μg/m³)
DateTimeUTC,F1_M11,P_M11,Q1_M11,Q2_M11,T1_M11,T2_M11,T3_M11,T4_M11,T5_M11,U1_M11,ZSPAN_M11,X0_M11,X2_M11,X1_M11
2022-08-11 18:00:00,,0831.7,5.01,0.00,29.2,27.1,00.0,37.9,31.0,32.6,0000.0,0016.54,0007.00,0005.26
2022-08-11 18:01:00,,0831.7,5.00,0.00,29.2,27.1,00.0,37.9,30.9,32.2,0000.0,0016.39,0006.99,0005.28
2022-08-11 18:02:00,,0831.8,5.00,0.00,29.1,27.2,00.0,37.9,30.8,32.1,0000.0,0017.58,0006.98,0005.27
2022-08-11 18:03:00,,0831.7,5.00,0.00,29.1,27.3,00.0,37.9,30.9,32.5,0000.0,0017.36,0006.92,0005.26
2022-08-11 18:04:00,,0831.7,4.99,0.00,29.1,27.5,00.0,37.9,31.0,32.1,0000.0,0017.72,0006.86,0005.25
2022-08-11 18:05:00,,0831.7,5.00,0.00,29.1,27.7,00.0,37.9,31.0,31.8,0000.0,0017.44,0006.83,0005.25
2022-08-11 18:06:00,,0831.8,5.00,0.00,29.2,27.9,00.0,37.9,31.1,31.4,0000.0,0017.14,0006.80,0005.26
2022-08-11 18:07:00,,0831.7,5.00,0.00,29.2,28.0,00.0,37.9,31.2,31.7,0000.0,0017.61,0006.69,0005.26
2022-08-11 18:08:00,,0831.7,5.00,0.00,29.2,27.5,00.0,37.9,31.1,31.0,0000.0,0017.99,0006.67,0005.26
2022-08-11 18:09:00,,0831.7,4.99,0.00,29.2,27.1,00.0,37.9,31.0,30.8,0000.0,0017.18,0006.74,0005.27
2022-08-11 18:10:00,,0831.7,5.00,0.00,29.1,27.0,00.0,37.9,31.0,30.5,0000.0,0016.66,0006.77,0005.28
2022-08-11 18:11:00,,0831.7,4.99,0.00,29.1,27.1,00.0,37.8,30.9,30.5,0000.0,0017.00,0006.83,0005.29
2022-08-11 18:12:00,,0831.7,4.99,0.00,29.1,27.3,00.0,37.8,30.9,30.6,0000.0,0017.10,0006.84,0005.30
2022-08-11 18:13:00,,0831.7,5.00,0.00,29.1,27.5,00.0,37.9,31.0,30.5,0000.0,0015.96,0006.78,0005.30
2022-08-11 18:14:00,,0831.7,5.00,0.00,29.1,27.7,00.0,37.9,31.0,30.5,0000.0,0015.34,0006.76,0005.31
2022-08-11 18:15:00,,0831.7,5.00,0.00,29.2,27.9,00.0,37.9,31.1,30.6,0000.0,0015.44,0006.80,0005.33
2022-08-11 18:16:00,,0831.7,5.00,0.00,29.2,28.0,00.0,37.9,31.2,30.2,0000.0,0016.41,0006.81,0005.34
2022-08-11 18:17:00,,0831.6,4.99,0.00,29.2,27.6,00.0,37.9,31.1,30.8,0000.0,0016.66,0006.80,0005.34
2022-08-11 18:18:00,,0831.7,4.99,0.00,29.2,27.1,00.0,37.8,31.0,30.6,0000.0,0016.27,0006.84,0005.34
2022-08-11 18:19:00,,0831.6,4.98,0.00,29.1,27.1,00.0,37.8,31.0,29.5,0000.0,0016.00,0006.84,0005.34
2022-08-11 18:20:00,,0831.7,5.00,0.00,29.1,27.1,00.0,37.8,30.8,30.3,0000.0,0015.39,0006.73,0005.35
2022-08-11 18:21:00,,0831.6,4.99,0.00,29.1,27.3,00.0,37.8,30.8,31.1,0000.0,0016.06,0006.76,0005.36
2022-08-11 18:22:00,,0831.6,5.02,0.00,29.1,27.5,00.0,37.8,30.9,31.4,0000.0,0016.86,0006.77,0005.38
2022-08-11 18:23:00,,0831.6,5.00,0.00,29.1,27.7,00.0,37.8,31.0,33.0,0000.0,0017.02,0006.82,0005.41
2022-08-11 18:24:00,,0831.6,5.01,0.00,29.1,27.9,00.0,37.9,31.1,33.4,0000.0,0017.28,0006.94,0005.44
2022-08-11 18:25:00,,0831.5,5.00,0.00,29.2,28.1,00.0,37.9,31.2,33.4,0000.0,0017.41,0007.00,0005.47
2022-08-11 18:26:00,,0831.6,5.00,0.00,29.2,27.9,00.0,37.9,31.2,32.9,0000.0,0017.01,0007.07,0005.50
2022-08-11 18:27:00,,0831.6,5.01,0.00,29.2,27.4,00.0,37.9,31.1,33.0,0000.0,0016.45,0007.13,0005.52
2022-08-11 18:28:00,,0831.5,5.00,0.00,29.2,27.1,00.0,37.8,31.0,32.8,0000.0,0017.48,0007.20,0005.55
2022-08-11 18:29:00,,0831.5,4.99,0.00,29.1,27.1,00.0,37.8,31.0,32.5,0000.0,0017.81,0007.27,0005.57
2022-08-11 18:30:00,,0831.5,5.01,0.00,29.1,27.2,00.0,37.8,30.9,32.4,0000.0,0017.73,0007.34,0005.59
2022-08-11 18:31:00,,0831.5,4.99,0.00,29.1,27.4,00.0,37.8,30.9,31.6,0000.0,0018.35,0007.46,0005.61
2022-08-11 18:32:00,,0831.5,5.00,0.00,29.1,27.6,00.0,37.8,31.0,31.8,0000.0,0017.74,0007.43,0005.61
2022-08-11 18:33:00,,0831.5,5.02,0.00,29.1,27.8,00.0,37.9,31.1,30.8,0000.0,0016.74,0007.42,0005.62
2022-08-11 18:34:00,,0831.5,4.99,0.00,29.2,28.0,00.0,37.9,31.2,30.4,0000.0,0016.72,0007.38,0005.61
2022-08-11 18:35:00,,0831.5,4.99,0.00,29.2,28.1,00.0,37.9,31.3,29.7,0000.0,0016.71,0007.33,0005.59
2022-08-11 18:36:00,,0831.5,5.00,0.00,29.3,28.1,00.0,37.9,31.3,29.8,0000.0,0016.88,0007.27,0005.56
2022-08-11 18:37:00,,0831.5,5.01,0.00,29.3,27.6,00.0,37.9,31.1,29.6,0000.0,0016.72,0007.16,0005.53
2022-08-11 18:38:00,,0831.5,5.01,0.00,29.2,27.2,00.0,37.9,31.0,29.7,0000.0,0016.40,0007.08,0005.51
2022-08-11 18:39:00,,0831.4,4.99,0.00,29.2,27.2,00.0,37.9,31.0,30.0,0000.0,0015.89,0007.05,0005.49
2022-08-11 18:40:00,,0831.4,5.01,0.00,29.1,27.3,00.0,37.9,30.9,30.2,0000.0,0015.82,0006.98,0005.47
2022-08-11 18:41:00,,0831.4,4.99,0.00,29.1,27.5,00.0,37.9,30.9,29.9,0000.0,0015.80,0006.92,0005.46
2022-08-11 18:42:00,,0831.4,5.01,0.00,29.2,27.6,00.0,37.9,31.0,29.2,0000.0,0015.38,0006.87,0005.45
2022-08-11 18:43:00,,0831.4,5.00,0.00,29.2,27.8,00.0,37.9,31.1,28.8,0000.0,0015.18,0006.80,0005.41
2022-08-11 18:44:00,,0831.3,5.00,0.00,29.2,28.0,00.0,37.9,31.2,28.9,0000.0,0015.30,0006.83,0005.38
2022-08-11 18:45:00,,0831.3,4.99,0.00,29.2,27.7,00.0,37.9,31.1,29.1,0000.0,0015.33,0006.83,0005.38
2022-08-11 18:46:00,,0831.3,5.01,0.00,29.2,27.2,00.0,37.9,31.0,29.6,0000.0,0014.98,0006.76,0005.37
2022-08-11 18:47:00,,0831.3,4.99,0.00,29.2,27.0,00.0,37.9,31.0,30.4,0000.0,0014.52,0006.76,0005.37
2022-08-11 18:48:00,,0831.3,5.02,0.00,29.1,27.1,00.0,37.9,30.9,30.5,0000.0,0014.74,0006.82,0005.39
2022-08-11 18:49:00,,0831.3,4.99,0.00,29.1,27.3,00.0,37.9,30.9,30.6,0000.0,0015.13,0006.82,0005.38
2022-08-11 18:50:00,,0831.3,5.01,0.00,29.1,27.5,00.0,37.9,31.0,30.6,0000.0,0014.96,0006.77,0005.37
2022-08-11 18:51:00,,0831.3,4.99,0.00,29.1,27.7,00.0,37.9,31.1,30.5,0000.0,0015.03,0006.80,0005.38
2022-08-11 18:52:00,,0831.3,4.99,0.00,29.2,27.9,00.0,37.9,31.1,30.8,0000.0,0015.60,0006.89,0005.38
2022-08-11 18:53:00,,0831.3,5.00,0.00,29.2,28.0,00.0,37.9,31.2,30.3,0000.0,0016.27,0006.92,0005.39
2022-08-11 18:54:00,,0831.3,5.01,0.00,29.2,27.8,00.0,37.9,31.1,29.9,0000.0,0016.62,0006.95,0005.40
2022-08-11 18:55:00,,0831.3,5.00,0.00,29.2,27.2,00.0,37.9,31.0,30.4,0000.0,0016.68,0006.92,0005.42
2022-08-11 18:56:00,,0831.3,5.00,0.00,29.1,27.0,00.0,37.9,30.9,31.0,0000.0,0016.71,0006.91,0005.43
2022-08-11 18:57:00,,0831.3,5.00,0.00,29.1,27.0,00.0,37.8,30.8,31.4,0000.0,0017.18,0006.95,0005.45
2022-08-11 18:58:00,,0831.3,5.00,0.00,29.1,27.2,00.0,37.8,30.8,31.6,0000.0,0017.38,0006.96,0005.46
2022-08-11 18:59:00,,0831.3,5.01,0.00,29.1,27.4,00.0,37.8,30.9,32.0,0000.0,0017.89,0006.92,0005.46
